owner,sensor,date,latitude,longitude,vertical_datum,sea_water_practical_salinity,qcFlag 
LUMCON,ioos:station:LUMCON:wisl1:1,2019-06-01T00:00:00Z,29.1144,-90.1840,1.997,18.52,11111222 
LUMCON,ioos:station:LUMCON:wisl1:1,2019-06-01T00:15:00Z,29.1144,-90.1840,2.0,18.57,11111222 
LUMCON,ioos:station:LUMCON:wisl1:1,2019-06-01T00:30:00Z,29.1144,-90.1840,2.01,18.61,11111222 
LUMCON,ioos:station:LUMCON:wisl1:1,2019-06-01T00:45:00Z,29.1144,-90.1840,2.01,18.63,11111222 
LUMCON,ioos:station:LUMCON:wisl1:1,2019-06-01T01:00:00Z,29.1144,-90.1840,2.012,18.66,11111222 
LUMCON,ioos:station:LUMCON:wisl1:1,2019-06-01T01:15:00Z,29.1144,-90.1840,2.014,18.69,11111222 
LUMCON,ioos:station:LUMCON:wisl1:1,2019-06-01T01:30:00Z,29.1144,-90.1840,2.02,18.69,11111222 
LUMCON,ioos:station:LUMCON:wisl1:1,2019-06-01T01:45:00Z,29.1144,-90.1840,2.029,18.72,11111222 
LUMCON,ioos:station:LUMCON:wisl1:1,2019-06-01T02:00:00Z,29.1144,-90.1840,2.037,18.73,11111222 
LUMCON,ioos:station:LUMCON:wisl1:1,2019-06-01T02:15:00Z,29.1144,-90.1840,2.046,18.74,11111222 
LUMCON,ioos:station:LUMCON:wisl1:1,2019-06-01T02:30:00Z,29.1144,-90.1840,2.053,18.63,11111222 
LUMCON,ioos:station:LUMCON:wisl1:1,2019-06-01T02:45:00Z,29.1144,-90.1840,2.075,18.65,11111222 
LUMCON,ioos:station:LUMCON:wisl1:1,2019-06-01T03:00:00Z,29.1144,-90.1840,2.085,18.52,11111222 
LUMCON,ioos:station:LUMCON:wisl1:1,2019-06-01T03:15:00Z,29.1144,-90.1840,2.094,18.53,11111222 
LUMCON,ioos:station:LUMCON:wisl1:1,2019-06-01T03:30:00Z,29.1144,-90.1840,2.098,18.48,11111222 
LUMCON,ioos:station:LUMCON:wisl1:1,2019-06-01T03:45:00Z,29.1144,-90.1840,2.104,18.45,11111222 
LUMCON,ioos:station:LUMCON:wisl1:1,2019-06-01T04:00:00Z,29.1144,-90.1840,2.109,18.25,11111222 
LUMCON,ioos:station:LUMCON:wisl1:1,2019-06-01T04:15:00Z,29.1144,-90.1840,2.12,18.16,11111222 
LUMCON,ioos:station:LUMCON:wisl1:1,2019-06-01T04:30:00Z,29.1144,-90.1840,2.121,18.1,11111222 
LUMCON,ioos:station:LUMCON:wisl1:1,2019-06-01T04:45:00Z,29.1144,-90.1840,2.14,18.12,11111222 
LUMCON,ioos:station:LUMCON:wisl1:1,2019-06-01T05:00:00Z,29.1144,-90.1840,2.137,18.08,11111222 
LUMCON,ioos:station:LUMCON:wisl1:1,2019-06-01T05:15:00Z,29.1144,-90.1840,2.147,18.02,11111222 
LUMCON,ioos:station:LUMCON:wisl1:1,2019-06-01T05:30:00Z,29.1144,-90.1840,2.163,17.83,11111222 
LUMCON,ioos:station:LUMCON:wisl1:1,2019-06-01T05:45:00Z,29.1144,-90.1840,2.172,17.68,11111222 
LUMCON,ioos:station:LUMCON:wisl1:1,2019-06-01T06:00:00Z,29.1144,-90.1840,2.18,17.57,11111222 
LUMCON,ioos:station:LUMCON:wisl1:1,2019-06-01T06:15:00Z,29.1144,-90.1840,2.203,16.89,11111222 
LUMCON,ioos:station:LUMCON:wisl1:1,2019-06-01T06:30:00Z,29.1144,-90.1840,2.224,16.14,11111222 
LUMCON,ioos:station:LUMCON:wisl1:1,2019-06-01T06:45:00Z,29.1144,-90.1840,2.239,15.44,11111222 
LUMCON,ioos:station:LUMCON:wisl1:1,2019-06-01T07:00:00Z,29.1144,-90.1840,2.258,14.93,11111222 
LUMCON,ioos:station:LUMCON:wisl1:1,2019-06-01T07:15:00Z,29.1144,-90.1840,2.28,14.46,11111222 
LUMCON,ioos:station:LUMCON:wisl1:1,2019-06-01T07:30:00Z,29.1144,-90.1840,2.292,14.52,11111222 
LUMCON,ioos:station:LUMCON:wisl1:1,2019-06-01T07:45:00Z,29.1144,-90.1840,2.297,14.14,11111222 
LUMCON,ioos:station:LUMCON:wisl1:1,2019-06-01T08:00:00Z,29.1144,-90.1840,2.315,14.04,11111222 
LUMCON,ioos:station:LUMCON:wisl1:1,2019-06-01T08:15:00Z,29.1144,-90.1840,2.319,13.99,11111222 
LUMCON,ioos:station:LUMCON:wisl1:1,2019-06-01T08:30:00Z,29.1144,-90.1840,2.329,14.24,11111222 
LUMCON,ioos:station:LUMCON:wisl1:1,2019-06-01T08:45:00Z,29.1144,-90.1840,2.34,13.78,11111222 
LUMCON,ioos:station:LUMCON:wisl1:1,2019-06-01T09:00:00Z,29.1144,-90.1840,2.353,14.06,11111222 
LUMCON,ioos:station:LUMCON:wisl1:1,2019-06-01T09:15:00Z,29.1144,-90.1840,2.361,14.73,11111222 
LUMCON,ioos:station:LUMCON:wisl1:1,2019-06-01T09:30:00Z,29.1144,-90.1840,2.366,14.2,11111222 
LUMCON,ioos:station:LUMCON:wisl1:1,2019-06-01T09:45:00Z,29.1144,-90.1840,2.379,14.01,11111222 
LUMCON,ioos:station:LUMCON:wisl1:1,2019-06-01T10:00:00Z,29.1144,-90.1840,2.388,13.85,11111222 
LUMCON,ioos:station:LUMCON:wisl1:1,2019-06-01T10:15:00Z,29.1144,-90.1840,2.399,13.98,11111222 
LUMCON,ioos:station:LUMCON:wisl1:1,2019-06-01T10:30:00Z,29.1144,-90.1840,2.414,13.55,11111222 
LUMCON,ioos:station:LUMCON:wisl1:1,2019-06-01T10:45:00Z,29.1144,-90.1840,2.425,13.75,11111222 
LUMCON,ioos:station:LUMCON:wisl1:1,2019-06-01T11:00:00Z,29.1144,-90.1840,2.441,13.56,11111222 
LUMCON,ioos:station:LUMCON:wisl1:1,2019-06-01T11:15:00Z,29.1144,-90.1840,2.453,13.52,11111222 
LUMCON,ioos:station:LUMCON:wisl1:1,2019-06-01T11:30:00Z,29.1144,-90.1840,2.461,14.78,11111222 
LUMCON,ioos:station:LUMCON:wisl1:1,2019-06-01T11:45:00Z,29.1144,-90.1840,2.469,13.86,11111222 
LUMCON,ioos:station:LUMCON:wisl1:1,2019-06-01T12:00:00Z,29.1144,-90.1840,2.469,15.37,11111222 
LUMCON,ioos:station:LUMCON:wisl1:1,2019-06-01T12:15:00Z,29.1144,-90.1840,2.476,14.19,11111222 
LUMCON,ioos:station:LUMCON:wisl1:1,2019-06-01T12:30:00Z,29.1144,-90.1840,2.479,14.12,11111222 
LUMCON,ioos:station:LUMCON:wisl1:1,2019-06-01T12:45:00Z,29.1144,-90.1840,2.486,14.11,11111222 
LUMCON,ioos:station:LUMCON:wisl1:1,2019-06-01T13:00:00Z,29.1144,-90.1840,2.487,14.05,11111222 
LUMCON,ioos:station:LUMCON:wisl1:1,2019-06-01T13:15:00Z,29.1144,-90.1840,2.494,14.42,11111222 
LUMCON,ioos:station:LUMCON:wisl1:1,2019-06-01T13:30:00Z,29.1144,-90.1840,2.5,14.4,11111222 
LUMCON,ioos:station:LUMCON:wisl1:1,2019-06-01T13:45:00Z,29.1144,-90.1840,2.506,14.16,11111222 
LUMCON,ioos:station:LUMCON:wisl1:1,2019-06-01T14:00:00Z,29.1144,-90.1840,2.507,14.32,11111222 
LUMCON,ioos:station:LUMCON:wisl1:1,2019-06-01T14:15:00Z,29.1144,-90.1840,2.515,13.89,11111222 
LUMCON,ioos:station:LUMCON:wisl1:1,2019-06-01T14:30:00Z,29.1144,-90.1840,2.51,13.99,11111222 
LUMCON,ioos:station:LUMCON:wisl1:1,2019-06-01T14:45:00Z,29.1144,-90.1840,2.509,14.1,11111222 
LUMCON,ioos:station:LUMCON:wisl1:1,2019-06-01T15:00:00Z,29.1144,-90.1840,2.507,13.9,11111222 
LUMCON,ioos:station:LUMCON:wisl1:1,2019-06-01T15:15:00Z,29.1144,-90.1840,2.497,16.82,11111222 
LUMCON,ioos:station:LUMCON:wisl1:1,2019-06-01T15:30:00Z,29.1144,-90.1840,2.499,14.99,11111222 
LUMCON,ioos:station:LUMCON:wisl1:1,2019-06-01T15:45:00Z,29.1144,-90.1840,2.489,16.07,11111222 
LUMCON,ioos:station:LUMCON:wisl1:1,2019-06-01T16:00:00Z,29.1144,-90.1840,2.486,15.59,11111222 
LUMCON,ioos:station:LUMCON:wisl1:1,2019-06-01T16:15:00Z,29.1144,-90.1840,2.481,14.6,11111222 
LUMCON,ioos:station:LUMCON:wisl1:1,2019-06-01T16:30:00Z,29.1144,-90.1840,2.469,15.73,11111222 
LUMCON,ioos:station:LUMCON:wisl1:1,2019-06-01T16:45:00Z,29.1144,-90.1840,2.465,16.35,11111222 
LUMCON,ioos:station:LUMCON:wisl1:1,2019-06-01T17:00:00Z,29.1144,-90.1840,2.456,16.47,11111222 
LUMCON,ioos:station:LUMCON:wisl1:1,2019-06-01T17:15:00Z,29.1144,-90.1840,2.447,16.4,11111222 
LUMCON,ioos:station:LUMCON:wisl1:1,2019-06-01T17:30:00Z,29.1144,-90.1840,2.427,16.48,11111222 
LUMCON,ioos:station:LUMCON:wisl1:1,2019-06-01T17:45:00Z,29.1144,-90.1840,2.407,16.03,11111222 
LUMCON,ioos:station:LUMCON:wisl1:1,2019-06-01T18:00:00Z,29.1144,-90.1840,2.389,15.98,11111222 
LUMCON,ioos:station:LUMCON:wisl1:1,2019-06-01T18:15:00Z,29.1144,-90.1840,2.365,16.17,11111222 
LUMCON,ioos:station:LUMCON:wisl1:1,2019-06-01T18:30:00Z,29.1144,-90.1840,2.343,15.87,11111222 
LUMCON,ioos:station:LUMCON:wisl1:1,2019-06-01T18:45:00Z,29.1144,-90.1840,2.317,15.97,11111222 
LUMCON,ioos:station:LUMCON:wisl1:1,2019-06-01T19:00:00Z,29.1144,-90.1840,2.291,15.95,11111222 
LUMCON,ioos:station:LUMCON:wisl1:1,2019-06-01T19:15:00Z,29.1144,-90.1840,2.265,15.81,11111222 
LUMCON,ioos:station:LUMCON:wisl1:1,2019-06-01T19:30:00Z,29.1144,-90.1840,2.241,16.03,11111222 
LUMCON,ioos:station:LUMCON:wisl1:1,2019-06-01T19:45:00Z,29.1144,-90.1840,2.216,15.68,11111222 
LUMCON,ioos:station:LUMCON:wisl1:1,2019-06-01T20:00:00Z,29.1144,-90.1840,2.186,15.88,11111222 
LUMCON,ioos:station:LUMCON:wisl1:1,2019-06-01T20:15:00Z,29.1144,-90.1840,2.172,16.19,11111222 
LUMCON,ioos:station:LUMCON:wisl1:1,2019-06-01T20:30:00Z,29.1144,-90.1840,2.146,16.2,11111222 
LUMCON,ioos:station:LUMCON:wisl1:1,2019-06-01T20:45:00Z,29.1144,-90.1840,2.131,16.21,11111222 
LUMCON,ioos:station:LUMCON:wisl1:1,2019-06-01T21:00:00Z,29.1144,-90.1840,2.111,16.24,11111222 
LUMCON,ioos:station:LUMCON:wisl1:1,2019-06-01T21:15:00Z,29.1144,-90.1840,2.077,16.43,11111222 
LUMCON,ioos:station:LUMCON:wisl1:1,2019-06-01T21:30:00Z,29.1144,-90.1840,2.054,16.45,11111222 
LUMCON,ioos:station:LUMCON:wisl1:1,2019-06-01T21:45:00Z,29.1144,-90.1840,2.041,16.58,11111222 
LUMCON,ioos:station:LUMCON:wisl1:1,2019-06-01T22:00:00Z,29.1144,-90.1840,2.025,16.76,11111222 
LUMCON,ioos:station:LUMCON:wisl1:1,2019-06-01T22:15:00Z,29.1144,-90.1840,2.013,16.84,11111222 
LUMCON,ioos:station:LUMCON:wisl1:1,2019-06-01T22:30:00Z,29.1144,-90.1840,1.999,17.0,11111222 
LUMCON,ioos:station:LUMCON:wisl1:1,2019-06-01T22:45:00Z,29.1144,-90.1840,1.989,17.14,11111222 
LUMCON,ioos:station:LUMCON:wisl1:1,2019-06-01T23:00:00Z,29.1144,-90.1840,1.983,17.2,11111222 
LUMCON,ioos:station:LUMCON:wisl1:1,2019-06-01T23:15:00Z,29.1144,-90.1840,1.974,17.44,11111222 
LUMCON,ioos:station:LUMCON:wisl1:1,2019-06-01T23:30:00Z,29.1144,-90.1840,1.964,17.47,11111222 
LUMCON,ioos:station:LUMCON:wisl1:1,2019-06-01T23:45:00Z,29.1144,-90.1840,1.961,17.54,11111222 
LUMCON,ioos:station:LUMCON:wisl1:1,2019-06-02T00:00:00Z,29.1144,-90.1840,1.963,17.24,11111222 
LUMCON,ioos:station:LUMCON:wisl1:1,2019-06-02T00:15:00Z,29.1144,-90.1840,1.953,17.37,11111222 
LUMCON,ioos:station:LUMCON:wisl1:1,2019-06-02T00:30:00Z,29.1144,-90.1840,1.944,17.48,11111222 
LUMCON,ioos:station:LUMCON:wisl1:1,2019-06-02T00:45:00Z,29.1144,-90.1840,1.947,17.61,11111222 
LUMCON,ioos:station:LUMCON:wisl1:1,2019-06-02T01:00:00Z,29.1144,-90.1840,1.944,17.5,11111222 
LUMCON,ioos:station:LUMCON:wisl1:1,2019-06-02T01:15:00Z,29.1144,-90.1840,1.944,17.76,11111222 
LUMCON,ioos:station:LUMCON:wisl1:1,2019-06-02T01:30:00Z,29.1144,-90.1840,1.947,17.67,11111222 
LUMCON,ioos:station:LUMCON:wisl1:1,2019-06-02T01:45:00Z,29.1144,-90.1840,1.959,17.67,11111222 
LUMCON,ioos:station:LUMCON:wisl1:1,2019-06-02T02:00:00Z,29.1144,-90.1840,1.96,17.76,11111222 
LUMCON,ioos:station:LUMCON:wisl1:1,2019-06-02T02:15:00Z,29.1144,-90.1840,1.965,17.72,11111222 
LUMCON,ioos:station:LUMCON:wisl1:1,2019-06-02T02:30:00Z,29.1144,-90.1840,1.974,17.79,11111222 
LUMCON,ioos:station:LUMCON:wisl1:1,2019-06-02T02:45:00Z,29.1144,-90.1840,1.98,17.83,11111222 
LUMCON,ioos:station:LUMCON:wisl1:1,2019-06-02T03:00:00Z,29.1144,-90.1840,1.992,17.81,11111222 
LUMCON,ioos:station:LUMCON:wisl1:1,2019-06-02T03:15:00Z,29.1144,-90.1840,2.001,17.9,11111222 
LUMCON,ioos:station:LUMCON:wisl1:1,2019-06-02T03:30:00Z,29.1144,-90.1840,2.003,17.88,11111222 
LUMCON,ioos:station:LUMCON:wisl1:1,2019-06-02T03:45:00Z,29.1144,-90.1840,2.019,17.85,11111222 
LUMCON,ioos:station:LUMCON:wisl1:1,2019-06-02T04:00:00Z,29.1144,-90.1840,2.037,17.71,11111222 
LUMCON,ioos:station:LUMCON:wisl1:1,2019-06-02T04:15:00Z,29.1144,-90.1840,2.045,17.72,11111222 
LUMCON,ioos:station:LUMCON:wisl1:1,2019-06-02T04:30:00Z,29.1144,-90.1840,2.049,17.69,11111222 
LUMCON,ioos:station:LUMCON:wisl1:1,2019-06-02T04:45:00Z,29.1144,-90.1840,2.063,17.68,11111222 
LUMCON,ioos:station:LUMCON:wisl1:1,2019-06-02T05:00:00Z,29.1144,-90.1840,2.07,17.55,11111222 
LUMCON,ioos:station:LUMCON:wisl1:1,2019-06-02T05:15:00Z,29.1144,-90.1840,2.092,17.51,11111222 
LUMCON,ioos:station:LUMCON:wisl1:1,2019-06-02T05:30:00Z,29.1144,-90.1840,2.1,17.45,11111222 
LUMCON,ioos:station:LUMCON:wisl1:1,2019-06-02T05:45:00Z,29.1144,-90.1840,2.104,17.26,11111222 
LUMCON,ioos:station:LUMCON:wisl1:1,2019-06-02T06:00:00Z,29.1144,-90.1840,2.119,17.25,11111222 
LUMCON,ioos:station:LUMCON:wisl1:1,2019-06-02T06:15:00Z,29.1144,-90.1840,2.117,17.22,11111222 
LUMCON,ioos:station:LUMCON:wisl1:1,2019-06-02T06:30:00Z,29.1144,-90.1840,2.125,17.19,11111222 
LUMCON,ioos:station:LUMCON:wisl1:1,2019-06-02T06:45:00Z,29.1144,-90.1840,2.134,17.25,11111222 
LUMCON,ioos:station:LUMCON:wisl1:1,2019-06-02T07:00:00Z,29.1144,-90.1840,2.147,17.42,11111222 
LUMCON,ioos:station:LUMCON:wisl1:1,2019-06-02T07:15:00Z,29.1144,-90.1840,2.16,17.55,11111222 
LUMCON,ioos:station:LUMCON:wisl1:1,2019-06-02T07:30:00Z,29.1144,-90.1840,2.181,17.68,11111222 
LUMCON,ioos:station:LUMCON:wisl1:1,2019-06-02T07:45:00Z,29.1144,-90.1840,2.206,18.0,11111222 
LUMCON,ioos:station:LUMCON:wisl1:1,2019-06-02T08:00:00Z,29.1144,-90.1840,2.229,18.5,11111222 
LUMCON,ioos:station:LUMCON:wisl1:1,2019-06-02T08:15:00Z,29.1144,-90.1840,2.237,18.68,11111222 
LUMCON,ioos:station:LUMCON:wisl1:1,2019-06-02T08:30:00Z,29.1144,-90.1840,2.254,18.84,11111222 
LUMCON,ioos:station:LUMCON:wisl1:1,2019-06-02T08:45:00Z,29.1144,-90.1840,2.285,18.22,11111222 
LUMCON,ioos:station:LUMCON:wisl1:1,2019-06-02T09:00:00Z,29.1144,-90.1840,2.291,18.73,11111222 
LUMCON,ioos:station:LUMCON:wisl1:1,2019-06-02T09:15:00Z,29.1144,-90.1840,2.309,19.14,11111222 
LUMCON,ioos:station:LUMCON:wisl1:1,2019-06-02T09:30:00Z,29.1144,-90.1840,2.33,19.27,11111222 
LUMCON,ioos:station:LUMCON:wisl1:1,2019-06-02T09:45:00Z,29.1144,-90.1840,2.353,18.68,11111222 
LUMCON,ioos:station:LUMCON:wisl1:1,2019-06-02T10:00:00Z,29.1144,-90.1840,2.374,18.83,11111222 
LUMCON,ioos:station:LUMCON:wisl1:1,2019-06-02T10:15:00Z,29.1144,-90.1840,2.395,18.6,11111222 
LUMCON,ioos:station:LUMCON:wisl1:1,2019-06-02T10:30:00Z,29.1144,-90.1840,2.408,18.3,11111222 
LUMCON,ioos:station:LUMCON:wisl1:1,2019-06-02T10:45:00Z,29.1144,-90.1840,2.422,18.62,11111222 
LUMCON,ioos:station:LUMCON:wisl1:1,2019-06-02T11:00:00Z,29.1144,-90.1840,2.44,18.44,11111222 
LUMCON,ioos:station:LUMCON:wisl1:1,2019-06-02T11:15:00Z,29.1144,-90.1840,2.445,19.02,11111222 
LUMCON,ioos:station:LUMCON:wisl1:1,2019-06-02T11:30:00Z,29.1144,-90.1840,2.464,18.77,11111222 
LUMCON,ioos:station:LUMCON:wisl1:1,2019-06-02T11:45:00Z,29.1144,-90.1840,2.466,19.48,11111222 
LUMCON,ioos:station:LUMCON:wisl1:1,2019-06-02T12:00:00Z,29.1144,-90.1840,2.48,19.49,11111222 
LUMCON,ioos:station:LUMCON:wisl1:1,2019-06-02T12:15:00Z,29.1144,-90.1840,2.482,19.33,11111222 
LUMCON,ioos:station:LUMCON:wisl1:1,2019-06-02T12:30:00Z,29.1144,-90.1840,2.486,19.67,11111222 
LUMCON,ioos:station:LUMCON:wisl1:1,2019-06-02T12:45:00Z,29.1144,-90.1840,2.493,20.18,11111222 
LUMCON,ioos:station:LUMCON:wisl1:1,2019-06-02T13:00:00Z,29.1144,-90.1840,2.492,20.88,11111222 
LUMCON,ioos:station:LUMCON:wisl1:1,2019-06-02T13:15:00Z,29.1144,-90.1840,2.495,21.33,11111222 
LUMCON,ioos:station:LUMCON:wisl1:1,2019-06-02T13:30:00Z,29.1144,-90.1840,2.501,20.88,11111222 
LUMCON,ioos:station:LUMCON:wisl1:1,2019-06-02T13:45:00Z,29.1144,-90.1840,2.499,21.56,11111222 
LUMCON,ioos:station:LUMCON:wisl1:1,2019-06-02T14:00:00Z,29.1144,-90.1840,2.511,20.48,11111222 
LUMCON,ioos:station:LUMCON:wisl1:1,2019-06-02T14:15:00Z,29.1144,-90.1840,2.506,22.04,11111222 
LUMCON,ioos:station:LUMCON:wisl1:1,2019-06-02T14:30:00Z,29.1144,-90.1840,2.511,20.55,11111222 
LUMCON,ioos:station:LUMCON:wisl1:1,2019-06-02T14:45:00Z,29.1144,-90.1840,2.506,20.41,11111222 
LUMCON,ioos:station:LUMCON:wisl1:1,2019-06-02T15:00:00Z,29.1144,-90.1840,2.501,20.21,11111222 
LUMCON,ioos:station:LUMCON:wisl1:1,2019-06-02T15:15:00Z,29.1144,-90.1840,2.488,20.43,11111222 
LUMCON,ioos:station:LUMCON:wisl1:1,2019-06-02T15:30:00Z,29.1144,-90.1840,2.486,21.92,11111222 
LUMCON,ioos:station:LUMCON:wisl1:1,2019-06-02T15:45:00Z,29.1144,-90.1840,2.482,24.26,11111222 
LUMCON,ioos:station:LUMCON:wisl1:1,2019-06-02T16:00:00Z,29.1144,-90.1840,2.49,25.05,11111222 
LUMCON,ioos:station:LUMCON:wisl1:1,2019-06-02T16:15:00Z,29.1144,-90.1840,2.501,24.12,11111222 
LUMCON,ioos:station:LUMCON:wisl1:1,2019-06-02T16:30:00Z,29.1144,-90.1840,2.492,22.8,11111222 
LUMCON,ioos:station:LUMCON:wisl1:1,2019-06-02T16:45:00Z,29.1144,-90.1840,2.474,21.68,11111222 
LUMCON,ioos:station:LUMCON:wisl1:1,2019-06-02T17:00:00Z,29.1144,-90.1840,2.455,20.72,11111222 
LUMCON,ioos:station:LUMCON:wisl1:1,2019-06-02T17:15:00Z,29.1144,-90.1840,2.431,22.93,11111222 
LUMCON,ioos:station:LUMCON:wisl1:1,2019-06-02T17:30:00Z,29.1144,-90.1840,2.425,22.67,11111222 
LUMCON,ioos:station:LUMCON:wisl1:1,2019-06-02T17:45:00Z,29.1144,-90.1840,2.414,23.75,11111222 
LUMCON,ioos:station:LUMCON:wisl1:1,2019-06-02T18:00:00Z,29.1144,-90.1840,2.389,23.83,11111222 
LUMCON,ioos:station:LUMCON:wisl1:1,2019-06-02T18:15:00Z,29.1144,-90.1840,2.382,23.55,11111222 
LUMCON,ioos:station:LUMCON:wisl1:1,2019-06-02T18:30:00Z,29.1144,-90.1840,2.361,23.25,11111222 
LUMCON,ioos:station:LUMCON:wisl1:1,2019-06-02T18:45:00Z,29.1144,-90.1840,2.335,22.74,11111222 
LUMCON,ioos:station:LUMCON:wisl1:1,2019-06-02T19:00:00Z,29.1144,-90.1840,2.307,22.47,11111222 
LUMCON,ioos:station:LUMCON:wisl1:1,2019-06-02T19:15:00Z,29.1144,-90.1840,2.288,22.16,11111222 
LUMCON,ioos:station:LUMCON:wisl1:1,2019-06-02T19:30:00Z,29.1144,-90.1840,2.262,21.89,11111222 
LUMCON,ioos:station:LUMCON:wisl1:1,2019-06-02T19:45:00Z,29.1144,-90.1840,2.241,21.64,11111222 
LUMCON,ioos:station:LUMCON:wisl1:1,2019-06-02T20:00:00Z,29.1144,-90.1840,2.219,21.12,11111222 
LUMCON,ioos:station:LUMCON:wisl1:1,2019-06-02T20:15:00Z,29.1144,-90.1840,2.194,20.52,11111222 
LUMCON,ioos:station:LUMCON:wisl1:1,2019-06-02T20:30:00Z,29.1144,-90.1840,2.156,20.22,11111222 
LUMCON,ioos:station:LUMCON:wisl1:1,2019-06-02T20:45:00Z,29.1144,-90.1840,2.13,19.92,11111222 
LUMCON,ioos:station:LUMCON:wisl1:1,2019-06-02T21:00:00Z,29.1144,-90.1840,2.111,19.8,11111222 
LUMCON,ioos:station:LUMCON:wisl1:1,2019-06-02T21:15:00Z,29.1144,-90.1840,2.077,19.73,11111222 
LUMCON,ioos:station:LUMCON:wisl1:1,2019-06-02T21:30:00Z,29.1144,-90.1840,2.062,19.64,11111222 
LUMCON,ioos:station:LUMCON:wisl1:1,2019-06-02T21:45:00Z,29.1144,-90.1840,2.045,19.53,11111222 
LUMCON,ioos:station:LUMCON:wisl1:1,2019-06-02T22:00:00Z,29.1144,-90.1840,2.025,19.34,11111222 
LUMCON,ioos:station:LUMCON:wisl1:1,2019-06-02T22:15:00Z,29.1144,-90.1840,2.012,19.13,11111222 
LUMCON,ioos:station:LUMCON:wisl1:1,2019-06-02T22:30:00Z,29.1144,-90.1840,2.01,19.3,11111222 
LUMCON,ioos:station:LUMCON:wisl1:1,2019-06-02T22:45:00Z,29.1144,-90.1840,1.991,19.1,11111222 
LUMCON,ioos:station:LUMCON:wisl1:1,2019-06-02T23:00:00Z,29.1144,-90.1840,1.965,18.93,11111222 
LUMCON,ioos:station:LUMCON:wisl1:1,2019-06-02T23:15:00Z,29.1144,-90.1840,1.957,18.88,11111222 
LUMCON,ioos:station:LUMCON:wisl1:1,2019-06-02T23:30:00Z,29.1144,-90.1840,1.946,18.77,11111222 
LUMCON,ioos:station:LUMCON:wisl1:1,2019-06-02T23:45:00Z,29.1144,-90.1840,1.947,18.74,11111222 
LUMCON,ioos:station:LUMCON:wisl1:1,2019-06-03T00:00:00Z,29.1144,-90.1840,1.939,18.6,11111222 
LUMCON,ioos:station:LUMCON:wisl1:1,2019-06-03T00:15:00Z,29.1144,-90.1840,1.936,18.61,11111222 
LUMCON,ioos:station:LUMCON:wisl1:1,2019-06-03T00:30:00Z,29.1144,-90.1840,1.934,18.39,11111222 
LUMCON,ioos:station:LUMCON:wisl1:1,2019-06-03T00:45:00Z,29.1144,-90.1840,1.937,18.32,11111222 
LUMCON,ioos:station:LUMCON:wisl1:1,2019-06-03T01:00:00Z,29.1144,-90.1840,1.931,18.33,11111222 
LUMCON,ioos:station:LUMCON:wisl1:1,2019-06-03T01:15:00Z,29.1144,-90.1840,1.936,18.45,11111222 
LUMCON,ioos:station:LUMCON:wisl1:1,2019-06-03T01:30:00Z,29.1144,-90.1840,1.957,18.01,11111222 
LUMCON,ioos:station:LUMCON:wisl1:1,2019-06-03T01:45:00Z,29.1144,-90.1840,1.963,17.72,11111222 
LUMCON,ioos:station:LUMCON:wisl1:1,2019-06-03T02:00:00Z,29.1144,-90.1840,1.971,17.72,11111222 
LUMCON,ioos:station:LUMCON:wisl1:1,2019-06-03T02:15:00Z,29.1144,-90.1840,1.981,17.7,11111222 
LUMCON,ioos:station:LUMCON:wisl1:1,2019-06-03T02:30:00Z,29.1144,-90.1840,1.993,17.66,11111222 
LUMCON,ioos:station:LUMCON:wisl1:1,2019-06-03T02:45:00Z,29.1144,-90.1840,2.001,17.58,11111222 
LUMCON,ioos:station:LUMCON:wisl1:1,2019-06-03T03:00:00Z,29.1144,-90.1840,2.001,17.52,11111222 
LUMCON,ioos:station:LUMCON:wisl1:1,2019-06-03T03:15:00Z,29.1144,-90.1840,2.012,17.49,11111222 
LUMCON,ioos:station:LUMCON:wisl1:1,2019-06-03T03:30:00Z,29.1144,-90.1840,2.028,17.53,11111222 
LUMCON,ioos:station:LUMCON:wisl1:1,2019-06-03T03:45:00Z,29.1144,-90.1840,2.027,17.52,11111222 
LUMCON,ioos:station:LUMCON:wisl1:1,2019-06-03T04:00:00Z,29.1144,-90.1840,2.05,17.51,11111222 
LUMCON,ioos:station:LUMCON:wisl1:1,2019-06-03T04:15:00Z,29.1144,-90.1840,2.056,17.49,11111222 
LUMCON,ioos:station:LUMCON:wisl1:1,2019-06-03T04:30:00Z,29.1144,-90.1840,2.06,17.5,11111222 
LUMCON,ioos:station:LUMCON:wisl1:1,2019-06-03T04:45:00Z,29.1144,-90.1840,2.084,17.54,11111222 
LUMCON,ioos:station:LUMCON:wisl1:1,2019-06-03T05:00:00Z,29.1144,-90.1840,2.088,17.57,11111222 
LUMCON,ioos:station:LUMCON:wisl1:1,2019-06-03T05:15:00Z,29.1144,-90.1840,2.101,17.57,11111222 
LUMCON,ioos:station:LUMCON:wisl1:1,2019-06-03T05:30:00Z,29.1144,-90.1840,2.107,17.6,11111222 
LUMCON,ioos:station:LUMCON:wisl1:1,2019-06-03T05:45:00Z,29.1144,-90.1840,2.118,17.64,11111222 
LUMCON,ioos:station:LUMCON:wisl1:1,2019-06-03T06:00:00Z,29.1144,-90.1840,2.129,17.88,11111222 
LUMCON,ioos:station:LUMCON:wisl1:1,2019-06-03T06:15:00Z,29.1144,-90.1840,2.145,17.88,11111222 
LUMCON,ioos:station:LUMCON:wisl1:1,2019-06-03T06:30:00Z,29.1144,-90.1840,2.158,17.94,11111222 
LUMCON,ioos:station:LUMCON:wisl1:1,2019-06-03T06:45:00Z,29.1144,-90.1840,2.164,18.3,11111222 
LUMCON,ioos:station:LUMCON:wisl1:1,2019-06-03T07:00:00Z,29.1144,-90.1840,2.175,18.78,11111222 
LUMCON,ioos:station:LUMCON:wisl1:1,2019-06-03T07:15:00Z,29.1144,-90.1840,2.195,19.99,11111222 
LUMCON,ioos:station:LUMCON:wisl1:1,2019-06-03T07:30:00Z,29.1144,-90.1840,2.211,21.37,11111222 
LUMCON,ioos:station:LUMCON:wisl1:1,2019-06-03T07:45:00Z,29.1144,-90.1840,2.228,22.49,11111222 
LUMCON,ioos:station:LUMCON:wisl1:1,2019-06-03T08:00:00Z,29.1144,-90.1840,2.25,23.5,11111222 
LUMCON,ioos:station:LUMCON:wisl1:1,2019-06-03T08:15:00Z,29.1144,-90.1840,2.275,22.21,11111222 
LUMCON,ioos:station:LUMCON:wisl1:1,2019-06-03T08:30:00Z,29.1144,-90.1840,2.282,21.95,11111222 
LUMCON,ioos:station:LUMCON:wisl1:1,2019-06-03T08:45:00Z,29.1144,-90.1840,2.297,21.33,11111222 
LUMCON,ioos:station:LUMCON:wisl1:1,2019-06-03T09:00:00Z,29.1144,-90.1840,2.309,22.68,11111222 
LUMCON,ioos:station:LUMCON:wisl1:1,2019-06-03T09:15:00Z,29.1144,-90.1840,2.328,23.27,11111222 
LUMCON,ioos:station:LUMCON:wisl1:1,2019-06-03T09:30:00Z,29.1144,-90.1840,2.351,22.09,11111222 
LUMCON,ioos:station:LUMCON:wisl1:1,2019-06-03T09:45:00Z,29.1144,-90.1840,2.373,21.72,11111222 
LUMCON,ioos:station:LUMCON:wisl1:1,2019-06-03T10:00:00Z,29.1144,-90.1840,2.397,21.6,11111222 
LUMCON,ioos:station:LUMCON:wisl1:1,2019-06-03T10:15:00Z,29.1144,-90.1840,2.412,20.68,11111222 
LUMCON,ioos:station:LUMCON:wisl1:1,2019-06-03T10:30:00Z,29.1144,-90.1840,2.434,21.12,11111222 
LUMCON,ioos:station:LUMCON:wisl1:1,2019-06-03T10:45:00Z,29.1144,-90.1840,2.449,21.35,11111222 
LUMCON,ioos:station:LUMCON:wisl1:1,2019-06-03T11:00:00Z,29.1144,-90.1840,2.467,20.8,11111222 
LUMCON,ioos:station:LUMCON:wisl1:1,2019-06-03T11:15:00Z,29.1144,-90.1840,2.476,22.49,11111222 
LUMCON,ioos:station:LUMCON:wisl1:1,2019-06-03T11:30:00Z,29.1144,-90.1840,2.495,21.18,11111222 
LUMCON,ioos:station:LUMCON:wisl1:1,2019-06-03T11:45:00Z,29.1144,-90.1840,2.511,20.89,11111222 
LUMCON,ioos:station:LUMCON:wisl1:1,2019-06-03T12:00:00Z,29.1144,-90.1840,2.517,20.8,11111222 
LUMCON,ioos:station:LUMCON:wisl1:1,2019-06-03T12:15:00Z,29.1144,-90.1840,2.524,21.78,11111222 
LUMCON,ioos:station:LUMCON:wisl1:1,2019-06-03T12:30:00Z,29.1144,-90.1840,2.531,20.95,11111222 
LUMCON,ioos:station:LUMCON:wisl1:1,2019-06-03T12:45:00Z,29.1144,-90.1840,2.542,20.33,11111222 
LUMCON,ioos:station:LUMCON:wisl1:1,2019-06-03T13:00:00Z,29.1144,-90.1840,2.547,20.41,11111222 
LUMCON,ioos:station:LUMCON:wisl1:1,2019-06-03T13:15:00Z,29.1144,-90.1840,2.546,22.16,11111222 
LUMCON,ioos:station:LUMCON:wisl1:1,2019-06-03T13:30:00Z,29.1144,-90.1840,2.557,20.26,11111222 
LUMCON,ioos:station:LUMCON:wisl1:1,2019-06-03T13:45:00Z,29.1144,-90.1840,2.557,20.36,11111222 
LUMCON,ioos:station:LUMCON:wisl1:1,2019-06-03T14:00:00Z,29.1144,-90.1840,2.561,19.83,11111222 
LUMCON,ioos:station:LUMCON:wisl1:1,2019-06-03T14:15:00Z,29.1144,-90.1840,2.559,20.52,11111222 
LUMCON,ioos:station:LUMCON:wisl1:1,2019-06-03T14:30:00Z,29.1144,-90.1840,2.563,19.6,11111222 
LUMCON,ioos:station:LUMCON:wisl1:1,2019-06-03T14:45:00Z,29.1144,-90.1840,2.561,19.28,11111222 